Overview Statistics Trail Chart Weather Telemetry Raw packets
 

This is the latest recevied weather packets stored in our database for station/object 4S6DRJ-13. If no packets are shown the sender has not sent any weather packets the latest 10 day(s).

<< 193 194 195 196 197 198 199 >>
Time Temp. Humidity Pressure Rain* Wind** Luminosity Snow
1788177868 29.44° C 78% 1007.2 hPa 0 mm 1.34 m/s, 241° 56 W/m² -
1788177807 29.44° C 78% 1007.1 hPa 0 mm 1.34 m/s, 207° 59 W/m² -
1788177746 29.44° C 78% 1007.3 hPa 0 mm 0 m/s 60 W/m² -
1788177685 29.44° C 78% 1007.4 hPa 0 mm 1.79 m/s, 101° 62 W/m² -
1788177624 29.44° C 78% 1007.3 hPa 0 mm 1.79 m/s, 183° 68 W/m² -
1788177563 29.44° C 78% 1007.3 hPa 0 mm 1.34 m/s, 274° 74 W/m² -
1788177502 29.44° C 78% 1007.3 hPa 0 mm 0.45 m/s, 213° 68 W/m² -
1788177441 29.44° C 78% 1007.1 hPa 0 mm 0.89 m/s, 249° 68 W/m² -
1788177380 29.44° C 78% 1007.5 hPa 0 mm 2.24 m/s, 215° 64 W/m² -
1788177319 29.44° C 77% 1007.2 hPa 0 mm 2.24 m/s, 56° 73 W/m² -
1788177258 29.44° C 77% 1007.4 hPa 0 mm 2.24 m/s, 225° 82 W/m² -
1788177197 29.44° C 77% 1007.3 hPa 0 mm 2.24 m/s, 230° 81 W/m² -
1788177136 29.44° C 77% 1007.2 hPa 0 mm 2.24 m/s, 298° 76 W/m² -
1788177075 29.44° C 76% 1007.4 hPa 0 mm 1.34 m/s, 235° 75 W/m² -
1788177014 29.44° C 76% 1007.3 hPa 0 mm 0.89 m/s, 243° 92 W/m² -
1788176953 29.44° C 76% 1007.3 hPa 0 mm 0.45 m/s, 169° 119 W/m² -
1788176892 29.44° C 76% 1007.1 hPa 0 mm 1.34 m/s, 335° 123 W/m² -
1788176831 29.44° C 76% 1007.3 hPa 0 mm 1.34 m/s, 260° 120 W/m² -
1788176770 29.44° C 77% 1007.5 hPa 0 mm 1.34 m/s, 213° 156 W/m² -
1788176709 29.44° C 77% 1007.3 hPa 0 mm 1.79 m/s, 204° 106 W/m² -
1788176648 29.44° C 77% 1007.2 hPa 0 mm 0.89 m/s, 286° 98 W/m² -
1788176586 29.44° C 77% 1007.3 hPa 0 mm 0.89 m/s, 257° 99 W/m² -
1788176525 29.44° C 77% 1007.2 hPa 0 mm 2.24 m/s, 56° 111 W/m² -
1788176465 29.44° C 76% 1007.2 hPa 0 mm 0.89 m/s, 303° 108 W/m² -
1788176404 29.44° C 76% 1007.3 hPa 0 mm 2.68 m/s, 196° 113 W/m² -

* Rain latest hour (hover to see other rain measurements)
** Current wind speed in m/s (hover to see current wind gust speed)